| time (UTC) | temp F | wind direction | speed knots | gust knots | rain 1hr in | rain 24hr in | rain mn in | humidity % | barometer mb |
| 20260510120037 | 48 | 288 | 7.0 | 14.8 | 0.00 | 0.12 | 0.00 | 66 | 1007.9 |
| 20260510114534 | 48 | 265 | 7.8 | 15.6 | 0.00 | 0.12 | 0.00 | 66 | 1007.7 |
| 20260510113042 | 48 | 255 | 8.7 | 18.2 | 0.00 | 0.12 | 0.00 | 66 | 1007.3 |
| 20260510111538 | 48 | 312 | 6.1 | 13.9 | 0.00 | 0.12 | 0.00 | 66 | 1006.9 |
| 20260510110040 | 48 | 272 | 7.0 | 13.9 | 0.00 | 0.12 | 0.00 | 66 | 1006.5 |
| 20260510104537 | 47 | 249 | 7.0 | 13.0 | 0.00 | 0.12 | 0.00 | 66 | 1006.2 |
| 20260510103042 | 47 | 259 | 6.1 | 12.2 | 0.00 | 0.12 | 0.00 | 67 | 1005.9 |
| 20260510101533 | 46 | 257 | 7.0 | 13.9 | 0.00 | 0.12 | 0.00 | 67 | 1005.7 |
| 20260510100034 | 46 | 259 | 7.0 | 12.2 | 0.00 | 0.12 | 0.00 | 66 | 1005.6 |
| 20260510094544 | 46 | 258 | 4.3 | 11.3 | 0.00 | 0.12 | 0.00 | 58 | 1005.2 |
| 20260510093037 | 46 | 250 | 6.1 | 13.9 | 0.00 | 0.12 | 0.00 | 24 | 1005.0 |
| 20260510091537 | 46 | 217 | 3.5 | 9.6 | 0.00 | 0.12 | 0.00 | 100 | 1004.8 |
| 20260510090037 | 46 | 234 | 2.6 | 7.0 | 0.00 | 0.12 | 0.00 | 100 | 1004.7 |
| 20260510084546 | 47 | 258 | 3.5 | 9.6 | 0.00 | 0.12 | 0.00 | 100 | 1004.6 |
| 20260510083041 | 47 | 251 | 3.5 | 7.0 | 0.00 | 0.12 | 0.00 | 100 | 1004.4 |
| 20260510081538 | 48 | 223 | 3.5 | 7.8 | 0.00 | 0.12 | 0.00 | 100 | 1004.3 |
| 20260510080040 | 48 | 182 | 4.3 | 9.6 | 0.00 | 0.12 | 0.00 | 100 | 1004.1 |
| 20260510074538 | 48 | 188 | 2.6 | 7.8 | 0.00 | 0.12 | 0.00 | 100 | 1004.1 |
| 20260510073043 | 49 | 158 | 2.6 | 6.1 | 0.00 | 0.12 | 0.00 | 100 | 1003.8 |
| 20260510071547 | 49 | 207 | 4.3 | 8.7 | 0.00 | 0.12 | 0.00 | 100 | 1003.8 |
| 20260510070042 | 49 | 227 | 4.3 | 10.4 | 0.00 | 0.12 | 0.00 | 100 | 1003.7 |
| 20260510064547 | 50 | 245 | 3.5 | 7.8 | 0.00 | 0.12 | 0.00 | 100 | 1003.5 |
| 20260510063038 | 50 | 233 | 3.5 | 10.4 | 0.00 | 0.12 | 0.00 | 100 | 1003.3 |
| 20260510061538 | 50 | 210 | 2.6 | 9.6 | 0.00 | 0.12 | 0.00 | 100 | 1003.3 |
| 20260510060038 | 50 | 201 | 4.3 | 9.6 | 0.00 | 0.12 | 0.00 | 100 | 1003.3 |
| 20260510054539 | 50 | 198 | 6.1 | 13.9 | 0.00 | 0.12 | 0.00 | 100 | 1003.2 |
| 20260510053041 | 51 | 219 | 6.1 | 8.7 | 0.00 | 0.12 | 0.00 | 100 | 1003.1 |
| 20260510051547 | 51 | 165 | 5.2 | 13.9 | 0.00 | 0.12 | 0.00 | 100 | 1003.1 |
| 20260510050040 | 51 | 204 | 5.2 | 11.3 | 0.00 | 0.12 | 0.00 | 100 | 1002.7 |
| 20260510044541 | 52 | 205 | 4.3 | 8.7 | 0.00 | 0.12 | 0.00 | 100 | 1002.2 |
| 20260510043044 | 52 | 262 | 4.3 | 15.6 | 0.00 | 0.12 | 0.00 | 100 | 1001.9 |
| 20260510041549 | 52 | 199 | 6.1 | 12.2 | 0.00 | 0.12 | 0.00 | 100 | 1001.9 |
| 20260510040042 | 52 | 169 | 3.5 | 11.3 | 0.03 | 0.12 | 0.00 | 100 | 1001.7 |
| 20260510034538 | 52 | 208 | 3.5 | 7.8 | 0.10 | 0.12 | 0.12 | 100 | 1001.8 |
| 20260510033038 | 52 | 200 | 3.5 | 8.7 | 0.12 | 0.12 | 0.12 | 100 | 1001.7 |
| 20260510031537 | 52 | 127 | 3.5 | 10.4 | 0.12 | 0.12 | 0.12 | 100 | 1001.6 |
| 20260510030041 | 52 | 49 | 4.3 | 10.4 | 0.09 | 0.09 | 0.09 | 27 | 1002.1 |
| 20260510024544 | 54 | 174 | 6.1 | 13.9 | 0.02 | 0.02 | 0.02 | 63 | 1001.8 |
| 20260510023038 | 56 | 122 | 3.5 | 9.6 | 0.00 | 0.00 | 0.00 | 65 | 1001.0 |
| 20260510021538 | 57 | 177 | 4.3 | 11.3 | 0.00 | 0.00 | 0.00 | 65 | 1001.0 |
| 20260510020046 | 57 | 122 | 3.5 | 8.7 | 0.00 | 0.00 | 0.00 | 65 | 1001.3 |
| 20260510014536 | 57 | 182 | 2.6 | 7.8 | 0.00 | 0.00 | 0.00 | 64 | 1001.8 |
| 20260510013036 | 57 | 108 | 2.6 | 7.0 | 0.00 | 0.00 | 0.00 | 64 | 1001.7 |
| 20260510011540 | 58 | 148 | 2.6 | 7.0 | 0.00 | 0.00 | 0.00 | 63 | 1001.8 |
| 20260510010056 | 58 | 123 | 3.5 | 8.7 | 0.00 | 0.00 | 0.00 | 62 | 1001.8 |
| 20260510004538 | 59 | 64 | 1.7 | 7.8 | 0.00 | 0.00 | 0.00 | 60 | 1001.8 |
| 20260510003038 | 60 | 79 | 2.6 | 8.7 | 0.00 | 0.00 | 0.00 | 59 | 1001.8 |
| 20260510001536 | 60 | 185 | 2.6 | 8.7 | 0.00 | 0.00 | 0.00 | 58 | 1002.3 |
| 20260510000041 | 60 | 197 | 4.3 | 11.3 | 0.00 | 0.00 | 0.00 | 57 | 1002.5 |
| 20260509234543 | 61 | 172 | 7.0 | 18.2 | 0.00 | 0.00 | 0.00 | 56 | 1002.6 |
| 20260509233039 | 62 | 169 | 5.2 | 13.0 | 0.00 | 0.00 | 0.00 | 54 | 1002.7 |
| 20260509231539 | 62 | 196 | 7.0 | 13.0 | 0.00 | 0.00 | 0.00 | 52 | 1002.6 |
| 20260509230037 | 63 | 136 | 3.5 | 14.8 | 0.00 | 0.00 | 0.00 | 48 | 1002.3 |
| 20260509224536 | 63 | 188 | 4.3 | 10.4 | 0.00 | 0.00 | 0.00 | 43 | 1002.2 |
| 20260509223036 | 64 | 150 | 4.3 | 11.3 | 0.00 | 0.00 | 0.00 | 41 | 1002.2 |
| 20260509221559 | 64 | 165 | 4.3 | 12.2 | 0.00 | 0.00 | 0.00 | 41 | 1002.1 |
| 20260509220041 | 65 | 186 | 4.3 | 13.0 | 0.00 | 0.00 | 0.00 | 39 | 1002.1 |
| 20260509214540 | 65 | 189 | 5.2 | 14.8 | 0.00 | 0.00 | 0.00 | 38 | 1002.0 |
| 20260509213037 | 65 | 167 | 5.2 | 11.3 | 0.00 | 0.00 | 0.00 | 38 | 1002.3 |
| 20260509211538 | 65 | 114 | 6.1 | 16.5 | 0.00 | 0.00 | 0.00 | 37 | 1002.4 |
| 20260509210037 | 67 | 195 | 5.2 | 11.3 | 0.00 | 0.00 | 0.00 | 33 | 1002.3 |
| 20260509204536 | 67 | 127 | 5.2 | 12.2 | 0.00 | 0.00 | 0.00 | 34 | 1002.3 |
| 20260509203044 | 68 | 274 | 6.1 | 10.4 | 0.00 | 0.00 | 0.00 | 30 | 1002.4 |
| 20260509201540 | 66 | 124 | 5.2 | 12.2 | 0.00 | 0.00 | 0.00 | 30 | 1002.4 |
| 20260509200042 | 68 | 162 | 5.2 | 17.4 | 0.00 | 0.00 | 0.00 | 28 | 1002.6 |
| 20260509194537 | 67 | 117 | 4.3 | 13.9 | 0.00 | 0.00 | 0.00 | 27 | 1003.0 |
| 20260509193044 | 66 | 162 | 7.0 | 12.2 | 0.00 | 0.00 | 0.00 | 27 | 1003.1 |
| 20260509191534 | 66 | 111 | 4.3 | 11.3 | 0.00 | 0.00 | 0.00 | 27 | 1003.1 |
| 20260509190046 | 66 | 169 | 5.2 | 12.2 | 0.00 | 0.00 | 0.00 | 27 | 1003.5 |
| 20260509184540 | 66 | 203 | 7.0 | 16.5 | 0.00 | 0.00 | 0.00 | 27 | 1003.8 |
| 20260509183042 | 66 | 158 | 6.1 | 16.5 | 0.00 | 0.00 | 0.00 | 27 | 1004.2 |
| 20260509181540 | 66 | 186 | 4.3 | 11.3 | 0.00 | 0.00 | 0.00 | 30 | 1004.3 |
| 20260509180037 | 65 | 198 | 4.3 | 9.6 | 0.00 | 0.00 | 0.00 | 31 | 1004.6 |
| 20260509174532 | 65 | 106 | 4.3 | 13.0 | 0.00 | 0.00 | 0.00 | 29 | 1004.5 |
| 20260509173051 | 65 | 141 | 6.1 | 13.0 | 0.00 | 0.00 | 0.00 | 29 | 1004.7 |
| 20260509171547 | 64 | 201 | 3.5 | 11.3 | 0.00 | 0.00 | 0.00 | 31 | 1004.9 |
| 20260509170042 | 63 | 117 | 5.2 | 11.3 | 0.00 | 0.00 | 0.00 | 31 | 1005.4 |
| 20260509164546 | 64 | 117 | 4.3 | 13.9 | 0.00 | 0.00 | 0.00 | 31 | 1005.7 |
| 20260509163047 | 64 | 105 | 4.3 | 12.2 | 0.00 | 0.00 | 0.00 | 31 | 1005.8 |
| 20260509161538 | 63 | 95 | 5.2 | 14.8 | 0.00 | 0.00 | 0.00 | 29 | 1006.2 |
| 20260509160038 | 63 | 191 | 4.3 | 9.6 | 0.00 | 0.00 | 0.00 | 32 | 1006.6 |
| 20260509154542 | 63 | 217 | 4.3 | 12.2 | 0.00 | 0.00 | 0.00 | 36 | 1006.9 |
| 20260509153039 | 60 | 78 | 0.9 | 6.1 | 0.00 | 0.00 | 0.00 | 42 | 1007.4 |
| 20260509151538 | 60 | 121 | 1.7 | 8.7 | 0.00 | 0.00 | 0.00 | 40 | 1007.7 |
| 20260509150037 | 60 | 176 | 0.9 | 10.4 | 0.00 | 0.00 | 0.00 | 42 | 1007.9 |
| 20260509144546 | 58 | 229 | 4.3 | 10.4 | 0.00 | 0.00 | 0.00 | 43 | 1008.0 |
| 20260509143039 | 55 | 183 | 1.7 | 6.1 | 0.00 | 0.00 | 0.00 | 48 | 1008.2 |
| 20260509141545 | 55 | 0 | 1.7 | 5.2 | 0.00 | 0.00 | 0.00 | 47 | 1008.3 |
| 20260509140038 | 53 | 141 | 0.9 | 5.2 | 0.00 | 0.00 | 0.00 | 48 | 1008.3 |
| 20260509134550 | 52 | 87 | 0.9 | 4.3 | 0.00 | 0.00 | 0.00 | 50 | 1008.5 |
| 20260509133041 | 51 | 140 | 0.9 | 5.2 | 0.00 | 0.00 | 0.00 | 51 | 1008.5 |
| 20260509131556 | 50 | 58 | 1.7 | 4.3 | 0.00 | 0.00 | 0.00 | 52 | 1008.7 |
| 20260509130049 | 49 | 90 | 1.7 | 4.3 | 0.00 | 0.00 | 0.00 | 52 | 1008.8 |
| 20260509124540 | 48 | 110 | 2.6 | 4.3 | 0.00 | 0.00 | 0.00 | 54 | 1008.9 |
| 20260509123048 | 46 | 125 | 1.7 | 5.2 | 0.00 | 0.00 | 0.00 | 57 | 1009.0 |
| 20260509121538 | 45 | 75 | 2.6 | 7.0 | 0.00 | 0.00 | 0.00 | 57 | 1008.9 |